Weather History for KMUI - November, 2012

Change the Weather History Date:

Thursday, November 29, 2012

  Actual Average Record
Temperature  
Mean Temperature 34 °F -  
Max Temperature 43 °F 46 °F 66 °F (2005)
Min Temperature 25 °F 33 °F 19 °F (2014)
Degree Days  
Heating Degree Days 31    
Moisture  
Dew Point 23 °F    
Average Humidity 69    
Maximum Humidity 90    
Minimum Humidity 48    
Precipitation  
Precipitation 0.01 in - - ()
Sea Level Pressure  
Sea Level Pressure 30.35 in    
Wind  
Wind Speed 5 mph (SW)    
Max Wind Speed 14 mph    
Max Gust Speed -    
Visibility 10 miles    
Events      
Averages and records for this station are not official NWS values.
T = Trace of Precipitation, MM = Missing Value Source: NWS Daily Summary

Daily Weather History Graph

Daily Weather History Graph

Search for Another Location

Airport or City:

Trip Planner

Search our weather history database for the weather conditions in past years. The results will help you decide how hot, cold, wet, or windy it might be!

Date:

Astronomy

Nov. 29, 2012 Rise Set
Actual Time 7:08 AM EST 4:40 PM EST
Civil Twilight 6:38 AM EST 5:10 PM EST
Nautical Twilight 6:04 AM EST 5:44 PM EST
Astronomical Twilight 5:31 AM EST 6:17 PM EST
Moon 5:41 PM EST (11/29) 7:53 AM EST (11/29)
Length of Visible Light 10h 32m
Length of Day
9h 32m
Full, 99% of the Moon is Illuminated
Nov 29
Full
Dec 6
Last Quarter
Dec 13
New
Dec 20
First Quarter
Dec 28
Full

Hourly Weather History & Observations

Time (EST) Temp. Windchill Dew Point Humidity Pressure Visibility Wind Dir Wind Speed Gust Speed Precip Events Conditions
12:55 AM 31.8 °F 28.5 °F 19.8 °F 61% 30.34 in 10.0 mi West 3.5 mph - N/A   Clear
1:55 AM 29.1 °F 24.1 °F 20.5 °F 70% 30.35 in 10.0 mi SW 4.6 mph - N/A   Clear
2:55 AM 29.5 °F 24.5 °F 20.3 °F 69% 30.35 in 10.0 mi SW 4.6 mph - N/A   Clear
3:55 AM 29.5 °F 24.5 °F 19.9 °F 68% 30.34 in 10.0 mi SW 4.6 mph - N/A   Clear
4:55 AM 26.8 °F 20.2 °F 19.9 °F 75% 30.35 in 10.0 mi SW 5.8 mph - N/A   Clear
5:55 AM 26.1 °F 19.4 °F 20.3 °F 79% 30.36 in 10.0 mi SW 5.8 mph - N/A   Clear
6:55 AM 29.1 °F 23.0 °F 21.6 °F 73% 30.36 in 10.0 mi SSW 5.8 mph - N/A   Clear
7:55 AM 29.8 °F 23.9 °F 22.3 °F 73% 30.38 in 10.0 mi SSW 5.8 mph - N/A   Partly Cloudy
8:55 AM 31.8 °F 27.3 °F 24.3 °F 74% 30.39 in 10.0 mi SW 4.6 mph - N/A   Scattered Clouds
9:55 AM 34.2 °F 30.0 °F 25.0 °F 69% 30.41 in 10.0 mi WSW 4.6 mph - N/A   Clear
10:55 AM 37.2 °F 31.9 °F 25.3 °F 62% 30.41 in 10.0 mi SW 6.9 mph - N/A   Clear
11:55 AM 41.4 °F 35.7 °F 24.1 °F 50% 30.39 in 10.0 mi WSW 9.2 mph - 0.01 in   Clear
12:55 PM 41.9 °F 36.3 °F 25.9 °F 53% 30.37 in 10.0 mi SW 9.2 mph - N/A   Partly Cloudy
1:55 PM 43.3 °F 37.2 °F 24.8 °F 48% 30.34 in 10.0 mi SSW 11.5 mph - N/A   Partly Cloudy
2:55 PM 43.3 °F 36.5 °F 25.0 °F 48% 30.32 in 10.0 mi SSW 13.8 mph - N/A   Clear
3:55 PM 42.4 °F 36.1 °F 24.6 °F 49% 30.32 in 10.0 mi SW 11.5 mph - N/A   Clear
4:55 PM 38.8 °F 33.8 °F 24.3 °F 56% 30.32 in 10.0 mi WSW 6.9 mph - N/A   Clear
5:55 PM 34.2 °F - 25.0 °F 69% 30.33 in 10.0 mi Calm Calm - N/A   Clear
6:55 PM 31.3 °F - 23.9 °F 74% 30.34 in 10.0 mi Calm Calm - N/A   Clear
7:55 PM 29.8 °F - 23.7 °F 78% 30.34 in 10.0 mi Calm Calm - N/A   Clear
8:55 PM 26.6 °F - 23.2 °F 87% 30.35 in 10.0 mi Calm Calm - N/A   Clear
9:55 PM 26.4 °F - 22.5 °F 85% 30.35 in 10.0 mi Calm Calm - N/A   Clear
10:55 PM 25.2 °F 20.9 °F 22.6 °F 90% 30.35 in 10.0 mi NE 3.5 mph - N/A   Clear
11:55 PM 26.2 °F - 23.4 °F 89% 30.35 in 10.0 mi Calm Calm - N/A   Clear